CDT,Max TemperatureF,Mean TemperatureF,Min TemperatureF,Max Dew PointF,MeanDew PointF,Min DewpointF,Max Humidity, Mean Humidity, Min Humidity, Max Sea Level PressureIn, Mean Sea Level PressureIn, Min Sea Level PressureIn, Max VisibilityMiles, Mean VisibilityMiles, Min VisibilityMiles, Max Wind SpeedMPH, Mean Wind SpeedMPH, Max Gust SpeedMPH,PrecipitationIn, CloudCover, Events, WindDirDegrees
2012-10-1,62,60,59,63,60,57,100,97,94,29.71,29.57,29.49,10,5,0,8,4,,0.23,8,Fog-Rain-Thunderstorm,315
2012-10-2,73,63,53,61,55,52,100,81,47,29.99,29.85,29.70,10,9,2,8,3,,0.00,4,,303
2012-10-3,77,64,50,64,57,50,100,84,47,30.16,30.08,30.00,10,8,2,7,1,,0.00,1,,179
2012-10-4,80,68,55,64,60,55,100,83,51,30.27,30.21,30.16,10,8,2,5,1,,0.00,1,,168
2012-10-5,82,68,53,64,59,54,100,81,39,30.19,30.10,30.00,10,7,0,7,1,,0.00,1,Fog,186
2012-10-6,62,56,50,61,52,46,100,91,77,30.13,30.08,30.01,10,10,5,10,4,18,0.01,7,Rain-Thunderstorm,350
2012-10-7,55,50,46,50,44,37,100,80,51,30.22,30.16,30.11,10,10,10,9,4,,0.00,5,,353
2012-10-8,60,53,46,50,46,45,100,81,59,30.23,30.17,30.12,10,10,7,8,3,,0.02,7,Rain,343
2012-10-9,68,52,37,54,45,37,100,81,46,30.17,30.10,30.03,10,8,0,6,1,,0.00,1,Fog,223
2012-10-10,73,62,50,59,55,50,100,83,53,30.23,30.15,30.07,10,10,4,9,2,,0.00,4,,319
2012-10-11,77,60,44,68,55,45,100,86,61,30.28,30.22,30.18,10,9,5,7,1,,0.00,2,Thunderstorm,132
2012-10-12,84,68,53,68,61,54,100,84,51,30.27,30.22,30.19,10,7,0,6,1,,0.00,2,Fog,206
2012-10-13,82,70,59,66,63,59,100,79,51,30.26,30.17,30.09,10,8,2,13,4,17,0.00,2,,153
2012-10-14,77,70,64,70,66,63,100,90,74,30.14,30.04,29.94,10,8,4,12,5,16,0.10,3,Rain-Thunderstorm,184
2012-10-15,75,63,50,64,54,46,100,78,36,30.06,30.00,29.96,10,8,1,7,1,,0.01,0,,333
2012-10-16,69,56,44,59,53,45,100,86,56,30.02,29.95,29.87,10,10,7,6,1,,0.00,0,,160
2012-10-17,78,64,50,64,55,48,100,75,44,29.88,29.78,29.65,10,10,2,14,4,20,0.04,1,Rain-Thunderstorm,160
2012-10-18,71,60,50,64,50,36,100,70,27,29.88,29.82,29.69,10,10,2,18,4,30,0.75,1,Rain-Thunderstorm,267
2012-10-19,69,56,44,46,41,36,100,64,28,29.89,29.84,29.78,10,10,7,15,4,25,0.00,1,,237
2012-10-20,73,56,39,52,44,37,100,79,31,30.01,29.95,29.89,10,10,7,8,1,,0.00,0,,261
2012-10-21,78,61,44,57,51,43,100,75,42,30.13,30.07,29.99,10,10,4,7,2,,0.00,0,,151
2012-10-22,80,63,46,59,52,46,100,71,36,30.19,30.12,30.08,10,10,7,7,2,,0.00,0,,146
2012-10-23,78,62,46,61,55,46,100,77,47,30.16,30.08,30.04,10,9,2,8,2,,0.00,0,,148
2012-10-24,80,66,53,61,56,52,100,79,42,30.14,30.08,30.02,10,10,7,7,2,,0.00,1,,154
2012-10-25,80,66,51,63,58,50,100,82,51,30.07,30.01,29.96,10,9,4,8,1,9,0.00,1,,154
2012-10-26,68,56,44,61,53,43,100,91,72,30.11,30.03,29.97,10,8,2,13,3,20,0.00,5,Rain,340
2012-10-27,53,48,44,45,42,37,93,80,67,30.09,30.06,30.02,10,10,7,10,7,20,0.00,8,,347
2012-10-28,59,48,37,39,36,32,93,64,36,30.14,30.06,30.01,10,10,10,13,6,20,0.00,1,,325
2012-10-29,57,46,35,36,33,28,93,65,36,30.20,30.13,30.05,10,10,10,13,3,21,0.00,0,,326
2012-10-30,60,48,35,37,32,27,93,63,31,30.05,29.99,29.93,10,10,10,10,4,18,0.00,0,,296
2012-10-31,64,50,35,48,40,34,100,78,42,30.01,29.97,29.94,10,10,10,6,1,,0.00,2,,281